Wind_Speed
61 62 61 57 54 53 53 54 55 56 56 59 62 64 66 69 73 76 80 85 88 92 95 98 102 105 109 112 116 120 124 121 116 103 106 111 116 120 124 128 128 122 117
60 61 60 56 55 54 55 56 56 57 59 62 64 66 70 73 76 80 84 87 91 95 99 102 106 109 114 117 122 125 119 119 111 109 113 118 124 129 131 122 115 110 101
59 59 59 57 57 57 56 56 57 59 62 64 67 71 73 77 80 83 87 91 95 99 102 106 110 114 118 123 121 119 114 112 118 120 120 127 130 126 115 110 102 95 93
58 59 58 58 59 57 57 57 58 62 64 67 70 73 77 80 83 86 90 95 99 102 107 110 114 119 121 117 115 109 115 120 125 127 129 127 119 112 103 94 92 88 83
58 58 58 59 59 57 56 58 61 63 67 70 74 77 81 83 86 90 93 97 103 107 111 115 120 117 115 109 111 117 123 127 129 130 122 114 106 97 93 89 82 81 77
58 58 58 58 56 54 57 60 61 66 69 73 78 81 83 86 90 92 97 102 105 110 115 116 112 110 106 112 118 125 130 133 130 116 108 100 98 95 90 84 79 75 74
59 58 55 52 52 55 57 60 64 68 72 77 81 83 85 88 93 98 101 105 110 113 109 109 101 107 113 117 123 128 134 130 117 107 102 98 95 87 83 80 74 67 59
52 50 47 50 53 56 59 63 66 71 76 79 82 85 89 93 97 101 105 110 107 106 100 103 108 112 119 124 127 131 125 116 109 104 99 92 84 80 75 72 66 61 53
46 46 47 51 54 57 60 65 70 75 79 82 84 89 94 96 100 106 106 104 99 96 103 109 114 120 125 129 130 120 113 107 103 98 89 82 76 71 66 64 58 53 50
41 44 48 51 54 59 64 69 74 78 81 85 89 92 95 101 105 102 100 90 97 102 109 115 121 127 130 128 118 110 105 101 95 87 80 72 66 60 55 53 51 50 46
42 46 50 54 58 63 68 73 76 80 85 88 92 96 101 99 98 91 90 96 102 108 114 120 127 131 125 115 108 103 98 89 83 78 70 64 58 52 48 46 45 44 43
44 49 53 57 62 67 71 75 79 83 87 90 96 97 94 91 83 90 97 103 110 114 120 127 130 122 112 107 102 96 86 80 73 66 61 56 52 48 43 40 42 38 39
48 53 57 62 66 70 73 78 82 85 90 92 89 89 81 86 91 97 104 110 114 122 127 129 119 110 104 100 90 82 77 69 64 59 53 49 46 45 42 37 36 34 33
53 58 62 67 70 74 78 81 84 87 84 85 79 77 83 90 96 103 109 113 121 126 125 116 107 101 96 86 80 75 68 62 57 53 48 44 43 40 38 35 31 30 27
58 63 67 70 73 77 80 82 79 79 78 72 76 82 88 95 102 107 111 119 122 117 110 101 95 89 80 75 68 64 61 56 51 47 45 41 39 37 33 32 28 26 26
64 67 68 71 75 77 74 74 74 68 68 74 80 87 94 100 104 110 118 120 112 105 97 91 81 75 72 67 62 56 52 49 47 43 39 37 34 32 28 25 24 22 22
64 67 69 69 68 69 67 63 63 68 73 79 86 93 100 104 110 116 116 109 99 93 86 76 72 69 64 59 55 51 46 41 37 36 37 36 34 30 25 21 22 21 21
61 63 63 61 57 55 56 62 68 74 81 89 95 99 105 111 113 111 104 97 91 80 71 69 65 61 57 53 50 45 39 38 40 40 39 37 33 27 24 22 18 18 17
54 50 49 49 51 56 62 68 74 79 85 91 97 103 108 110 107 101 92 87 77 70 67 63 59 54 51 48 44 42 43 45 44 40 36 33 30 26 23 20 17 14 14
45 45 47 51 57 61 68 74 80 85 91 97 101 105 103 103 98 92 85 75 67 65 61 56 52 49 46 43 42 44 46 45 42 39 34 28 26 22 20 19 15 13 11
46 49 53 57 62 68 75 80 86 91 96 101 105 100 96 92 87 82 72 66 63 58 53 49 46 43 41 42 43 46 45 42 38 33 28 23 20 19 17 17 13 13 10
50 53 58 63 69 75 80 86 91 95 100 101 98 94 88 81 76 68 64 61 56 50 45 43 40 38 39 41 44 45 42 40 35 30 25 21 18 13 11 11 10 11 11
53 58 63 70 76 82 88 91 95 99 98 94 89 85 77 71 64 62 59 53 47 41 38 38 37 37 40 43 43 40 38 35 34 28 23 19 15 12 9 6 4 7 9
58 64 70 76 82 88 92 95 99 96 90 86 80 72 67 61 60 56 51 44 38 34 33 33 34 37 40 42 40 37 33 31 31 26 22 18 15 11 8 2 3 5 8
64 71 77 83 89 93 96 98 95 88 84 76 68 63 58 57 54 48 42 37 31 28 29 32 34 37 40 40 37 33 30 28 28 27 22 19 16 11 7 4 6 7 9
72 78 84 89 93 96 97 93 87 82 74 65 61 55 54 51 46 41 35 29 26 24 27 32 35 37 37 36 33 30 27 25 22 24 23 19 16 11 7 6 8 9 12
Wind_Direction
232 235 239 242 245 249 255 259 263 266 270 272 275 279 282 284 286 289 290 291 292 294 296 297 298 299 299 300 302 301 302 303 302 301 298 296 296 298 299 297 293 292 292
231 233 237 241 245 250 256 260 265 268 272 275 278 282 284 286 288 290 291 292 294 296 298 299 299 300 301 302 302 303 304 302 301 299 298 298 301 302 299 298 297 294 293
232 233 236 241 245 250 256 262 267 271 274 278 281 284 287 288 290 291 292 294 296 297 298 299 300 301 302 303 304 302 302 302 300 300 302 304 304 299 300 299 298 296 293
231 232 235 241 246 252 259 265 270 273 277 280 283 286 288 290 291 293 295 295 297 298 299 300 301 302 303 303 303 303 303 301 300 304 308 306 303 302 302 300 300 297 296
230 233 235 241 247 254 262 268 271 276 280 283 287 289 290 291 293 294 296 297 298 299 301 302 302 304 303 304 303 302 301 301 306 310 307 304 304 305 304 303 301 299 297
230 233 236 241 249 258 265 270 275 279 284 287 289 291 291 293 295 296 297 298 299 301 301 303 303 304 305 304 304 303 304 307 309 307 307 307 308 308 305 304 302 301 299
228 232 237 245 254 261 267 273 277 282 285 287 290 292 294 296 297 298 299 301 301 302 303 303 304 305 305 304 304 306 308 310 309 310 310 310 307 306 305 304 302 301 298
229 235 242 250 258 264 269 274 279 282 285 289 291 294 296 297 298 299 301 301 303 303 304 305 305 306 305 305 307 311 311 310 311 311 310 308 307 305 304 303 302 301 301
230 235 246 256 262 267 273 276 280 284 287 290 293 295 296 298 300 301 302 303 304 305 305 306 308 307 306 307 312 312 310 311 311 309 308 307 306 305 304 303 303 303 302
233 244 253 261 267 270 274 278 282 286 289 291 294 296 299 300 301 302 303 304 305 306 307 307 307 307 310 313 312 311 311 311 309 308 307 307 306 304 303 303 305 304 304
242 252 260 265 269 274 277 280 284 288 291 293 296 299 300 301 302 304 304 305 307 308 308 307 308 311 313 312 312 312 311 309 308 308 309 307 306 305 306 305 305 304 304
252 258 264 269 273 276 279 283 286 290 294 297 299 301 300 303 304 306 306 307 308 309 308 309 312 313 313 312 312 310 309 309 309 310 309 307 307 308 308 306 305 306 306
258 264 268 271 275 279 283 286 291 294 297 299 299 301 303 306 308 308 308 309 311 310 310 313 314 313 312 311 310 309 310 311 311 310 309 309 310 310 309 308 306 308 310
263 268 272 275 279 283 287 291 294 296 296 298 301 303 306 307 308 309 310 312 311 310 312 313 313 311 311 310 310 311 312 312 312 311 310 309 308 306 305 307 308 309 312
268 272 276 280 284 288 290 293 294 295 298 301 304 306 307 308 308 310 311 309 310 313 313 312 311 309 309 310 311 312 313 313 313 311 310 309 308 307 307 306 308 313 311
272 277 281 284 287 291 292 293 296 299 302 304 306 306 306 308 310 311 309 311 314 314 313 312 311 311 313 313 315 315 314 313 312 310 310 309 308 307 310 306 304 313 310
277 282 286 289 290 292 295 299 302 302 304 306 307 308 310 312 311 311 311 314 314 313 313 314 315 315 316 316 316 317 316 316 316 316 316 313 310 307 302 301 299 304 309
284 286 289 291 293 296 300 302 305 308 309 311 312 313 314 313 312 312 315 315 315 314 316 318 317 317 317 318 319 320 321 324 323 320 317 314 310 304 297 289 287 290 300
288 290 291 294 297 300 304 307 308 309 310 311 313 314 314 312 312 316 316 315 315 317 321 320 319 319 320 322 324 325 326 324 321 318 316 312 308 302 296 288 277 277 286
290 291 294 297 301 305 308 309 310 312 312 313 314 315 313 313 315 315 315 316 318 322 321 320 320 322 324 326 329 327 323 321 321 320 318 312 306 303 295 287 270 263 267
293 296 300 303 307 309 309 311 312 313 313 315 316 314 314 316 315 314 316 319 322 322 321 320 323 325 328 330 328 328 329 328 329 327 324 318 309 304 293 283 268 252 257
298 302 305 309 309 310 311 311 313 314 315 317 315 316 317 315 315 317 320 322 323 322 322 323 325 329 332 332 334 334 333 332 334 334 334 330 324 320 301 288 268 241 235
303 306 309 309 310 311 311 313 314 316 318 317 317 318 317 317 319 322 323 323 322 323 325 327 331 335 336 338 339 339 338 336 338 345 352 352 347 339 333 317 253 218 211
307 309 309 311 312 311 312 314 317 319 319 318 320 318 319 321 324 325 325 323 325 328 328 332 336 337 340 344 344 344 346 345 344 354 3 2 3 1 4 43 141 159 176
310 311 312 313 311 313 315 318 321 320 319 321 320 322 323 325 326 325 324 325 329 333 335 336 340 342 345 347 348 352 355 355 351 350 -0 5 14 18 30 83 117 133 152
313 314 313 312 314 315 319 322 321 320 323 323 324 325 326 327 326 324 327 329 335 341 339 338 342 347 347 348 353 358 1 2 356 350 3 15 19 29 46 85 111 126 145
Height
10560 10567 10574 10581 10585 10587 10588 10587 10587 10587 10586 10584 10581 10578 10575 10570 10564 10557 10549 10540 10532 10522 10513 10503 10491 10480 10465 10452 10438 10423 10409 10394 10390 10387 10362 10345 10327 10309 10297 10280 10259 10244 10230
10549 10556 10564 10570 10574 10576 10575 10576 10575 10575 10573 10570 10567 10564 10559 10554 10548 10541 10531 10522 10512 10502 10491 10480 10467 10453 10438 10424 10409 10393 10377 10360 10348 10347 10333 10314 10294 10275 10250 10236 10222 10204 10198
10541 10547 10554 10559 10562 10562 10564 10564 10564 10563 10560 10557 10554 10548 10543 10537 10531 10523 10514 10503 10492 10482 10470 10457 10443 10428 10412 10397 10379 10363 10346 10331 10311 10301 10301 10278 10256 10229 10217 10197 10184 10171 10159
10531 10537 10543 10547 10549 10551 10553 10553 10552 10550 10547 10543 10538 10533 10527 10520 10512 10504 10496 10484 10471 10458 10445 10432 10417 10401 10386 10369 10352 10335 10319 10301 10282 10270 10255 10235 10211 10195 10179 10168 10151 10138 10130
10522 10528 10533 10536 10539 10541 10543 10542 10540 10537 10533 10528 10523 10517 10510 10502 10494 10485 10476 10462 10449 10434 10419 10404 10389 10374 10358 10341 10326 10308 10287 10268 10254 10241 10217 10195 10177 10163 10147 10136 10126 10112 10103
10513 10518 10522 10526 10530 10533 10532 10530 10528 10524 10519 10514 10507 10501 10493 10485 10476 10465 10454 10441 10426 10412 10397 10379 10364 10348 10332 10315 10295 10273 10251 10232 10224 10206 10185 10166 10146 10134 10116 10106 10098 10088 10073
10501 10506 10514 10520 10522 10522 10520 10519 10515 10511 10505 10499 10492 10483 10475 10466 10455 10443 10431 10417 10402 10387 10370 10354 10340 10324 10307 10288 10268 10244 10220 10196 10180 10171 10154 10137 10122 10109 10093 10079 10072 10067 10059
10496 10503 10509 10511 10511 10511 10509 10506 10502 10497 10491 10484 10476 10467 10456 10447 10434 10421 10408 10393 10377 10361 10345 10330 10315 10299 10275 10256 10241 10218 10189 10168 10153 10139 10125 10112 10099 10086 10073 10061 10051 10042 10040
10491 10496 10499 10502 10501 10500 10497 10493 10488 10482 10475 10468 10459 10449 10437 10426 10413 10400 10384 10368 10353 10338 10320 10301 10286 10266 10245 10228 10210 10185 10162 10143 10128 10115 10102 10090 10077 10064 10053 10040 10034 10027 10021
10486 10490 10492 10492 10491 10488 10484 10480 10474 10468 10460 10449 10441 10431 10419 10404 10390 10376 10362 10345 10332 10318 10299 10277 10256 10235 10215 10196 10174 10156 10139 10121 10105 10091 10081 10069 10058 10048 10039 10028 10020 10012 10008
10480 10482 10482 10481 10479 10476 10471 10466 10460 10452 10442 10432 10421 10410 10396 10383 10368 10354 10339 10325 10310 10294 10273 10249 10227 10206 10187 10166 10146 10130 10116 10100 10084 10071 10060 10048 10040 10032 10024 10015 10009 10001 9994
10473 10473 10472 10470 10467 10462 10457 10451 10443 10434 10425 10414 10400 10386 10373 10361 10350 10336 10319 10302 10285 10267 10242 10218 10199 10178 10157 10138 10123 10107 10093 10079 10066 10054 10042 10031 10023 10015 10010 10003 9995 9992 9984
10464 10463 10461 10457 10453 10448 10441 10435 10427 10418 10407 10394 10380 10368 10353 10340 10326 10311 10294 10276 10256 10231 10209 10189 10168 10149 10132 10116 10102 10087 10074 10061 10048 10038 10028 10018 10009 10002 9996 9992 9985 9981 9977
10453 10451 10448 10443 10438 10432 10425 10418 10410 10399 10387 10376 10364 10352 10338 10323 10308 10290 10271 10251 10229 10206 10185 10163 10145 10127 10112 10095 10080 10066 10054 10043 10032 10023 10015 10007 9999 9994 9986 9981 9976 9972 9969
10441 10438 10433 10428 10423 10416 10409 10400 10390 10380 10370 10358 10347 10334 10321 10305 10288 10270 10249 10228 10209 10187 10165 10145 10127 10110 10094 10080 10067 10051 10037 10027 10018 10010 10002 9996 9989 9982 9977 9970 9966 9963 9960
10428 10423 10419 10414 10407 10399 10390 10381 10371 10361 10353 10343 10331 10318 10301 10285 10267 10245 10220 10199 10182 10160 10140 10124 10107 10090 10073 10060 10048 10038 10027 10016 10006 9999 9992 9985 9980 9974 9970 9964 9959 9957 9954
10414 10410 10404 10397 10389 10381 10372 10363 10353 10345 10337 10326 10311 10294 10276 10259 10239 10216 10195 10174 10157 10138 10120 10104 10087 10070 10058 10046 10034 10025 10015 10006 9998 9990 9983 9976 9971 9965 9961 9957 9953 9950 9947
10399 10393 10387 10380 10372 10366 10358 10350 10339 10328 10313 10295 10280 10267 10247 10227 10207 10189 10172 10150 10133 10119 10103 10086 10071 10057 10045 10034 10023 10014 10005 9996 9988 9980 9973 9966 9960 9956 9952 9948 9945 9943 9942
10383 10377 10371 10366 10359 10352 10343 10333 10322 10310 10297 10282 10266 10245 10226 10199 10179 10166 10150 10133 10116 10099 10084 10070 10056 10044 10033 10023 10014 10004 9994 9986 9977 9970 9963 9956 9950 9946 9943 9940 9938 9937 9937
10369 10364 10359 10353 10345 10337 10327 10316 10303 10290 10275 10259 10243 10225 10201 10178 10158 10140 10127 10114 10100 10084 10069 10056 10045 10034 10025 10016 10006 9997 9987 9977 9967 9959 9952 9946 9941 9938 9934 9932 9932 9932 9933
10358 10352 10346 10338 10329 10320 10309 10296 10283 10269 10254 10235 10216 10196 10178 10160 10140 10125 10111 10097 10085 10071 10057 10046 10036 10027 10018 10009 10000 9989 9977 9966 9958 9951 9945 9940 9935 9931 9929 9926 9927 9929 9930
10346 10339 10332 10323 10313 10302 10289 10276 10263 10248 10232 10213 10190 10171 10156 10139 10123 10108 10096 10083 10071 10059 10048 10038 10030 10022 10014 10004 9993 9981 9970 9961 9953 9946 9940 9935 9931 9928 9924 9923 9924 9926 9927
10332 10325 10317 10307 10294 10281 10268 10256 10243 10227 10208 10187 10169 10152 10134 10119 10106 10094 10082 10071 10060 10050 10041 10032 10024 10016 10008 9999 9988 9977 9967 9957 9949 9943 9937 9931 9928 9924 9922 9922 9922 9924 9926
10319 10310 10300 10288 10274 10260 10248 10234 10220 10202 10184 10166 10151 10133 10117 10104 10092 10081 10071 10061 10052 10044 10035 10028 10021 10013 10004 9994 9984 9974 9966 9956 9947 9942 9937 9932 9927 9924 9922 9922 9923 9925 9926
10303 10293 10281 10268 10254 10240 10226 10213 10196 10179 10163 10149 10132 10117 10104 10092 10081 10072 10063 10054 10047 10039 10031 10024 10017 10009 10000 9991 9983 9973 9965 9957 9948 9941 9938 9932 9927 9925 9924 9923 9924 9926 9928
10286 10274 10262 10247 10234 10220 10206 10191 10174 10159 10144 10129 10116 10103 10092 10082 10073 10064 10056 10048 10042 10036 10029 10021 10014 10006 9998 9990 9982 9974 9967 9959 9952 9943 9938 9934 9930 9928 9927 9926 9927 9928 9930